Meteo pe oră la Dzialki

Astăzi, 29 Septembrie, Marţi

Timp Temperatura Precipitaţii Vânt Presiune Umiditate
00:00 +12°C° 0.3 mm 1 m/s 738 mmHg 92%
01:00 +12°C° 0 mm 1 m/s 738 mmHg 96%
02:00 +12°C° 0.7 mm 1 m/s 738 mmHg 97%
03:00 +12°C° 0.7 mm 1 m/s 738 mmHg 97%
04:00 +12°C° 0.7 mm 1 m/s 737 mmHg 97%
05:00 +12°C° 0.6 mm 1 m/s 737 mmHg 97%
06:00 +12°C° 0.6 mm 1 m/s 738 mmHg 97%
07:00 +12°C° 0 mm 1 m/s 738 mmHg 96%
08:00 +13°C° 0.1 mm 2 m/s 738 mmHg 94%
09:00 +13°C° 0.1 mm 2 m/s 738 mmHg 92%
10:00 +13°C° 0.1 mm 2 m/s 738 mmHg 90%
11:00 +14°C° 0 mm 2 m/s 738 mmHg 88%
12:00 +14°C° 0 mm 2 m/s 739 mmHg 86%
13:00 +15°C° 0 mm 1 m/s 739 mmHg 84%
14:00 +15°C° 0 mm 2 m/s 739 mmHg 85%
15:00 +15°C° 0 mm 2 m/s 739 mmHg 86%
16:00 +15°C° 0 mm 2 m/s 739 mmHg 86%
17:00 +14°C° 0 mm 2 m/s 739 mmHg 88%
18:00 +14°C° 0 mm 2 m/s 739 mmHg 89%
19:00 +14°C° 0 mm 2 m/s 740 mmHg 91%
20:00 +13°C° 0.2 mm 2 m/s 740 mmHg 91%
21:00 +12°C° 0.2 mm 3 m/s 740 mmHg 92%
22:00 +12°C° 0.2 mm 3 m/s 740 mmHg 93%
23:00 +12°C° 0.4 mm 3 m/s 740 mmHg 94%

Mâine, 30 Septembrie, Miercuri

Timp Temperatura Precipitaţii Vânt Presiune Umiditate
00:00 +12°C° 0.4 mm 3 m/s 740 mmHg 95%
01:00 +12°C° 0.4 mm 3 m/s 739 mmHg 95%
02:00 +12°C° 0.1 mm 3 m/s 739 mmHg 95%
03:00 +11°C° 0.1 mm 3 m/s 739 mmHg 95%
04:00 +11°C° 0.1 mm 3 m/s 739 mmHg 95%
05:00 +11°C° 0 mm 3 m/s 739 mmHg 94%
06:00 +11°C° 0 mm 3 m/s 739 mmHg 93%
07:00 +11°C° 0 mm 4 m/s 739 mmHg 92%
08:00 +12°C° 0 mm 4 m/s 739 mmHg 87%
09:00 +13°C° 0 mm 4 m/s 739 mmHg 82%
10:00 +14°C° 0 mm 4 m/s 739 mmHg 77%
11:00 +14°C° 0 mm 5 m/s 738 mmHg 75%
12:00 +15°C° 0 mm 5 m/s 738 mmHg 73%
13:00 +15°C° 0 mm 5 m/s 737 mmHg 71%
14:00 +15°C° 0 mm 5 m/s 737 mmHg 71%
15:00 +15°C° 0 mm 5 m/s 737 mmHg 72%
16:00 +15°C° 0 mm 5 m/s 737 mmHg 72%
17:00 +15°C° 0.2 mm 5 m/s 737 mmHg 76%
18:00 +14°C° 0.2 mm 4 m/s 737 mmHg 81%
19:00 +14°C° 0.2 mm 4 m/s 737 mmHg 85%
20:00 +14°C° 0.1 mm 4 m/s 736 mmHg 85%
21:00 +14°C° 0.1 mm 4 m/s 736 mmHg 84%
22:00 +14°C° 0.1 mm 4 m/s 736 mmHg 84%
23:00 +13°C° 0.3 mm 4 m/s 736 mmHg 86%

Poimâine, 1 Octombrie, Joi

Timp Temperatura Precipitaţii Vânt Presiune Umiditate
00:00 +13°C° 0.3 mm 4 m/s 736 mmHg 88%
01:00 +13°C° 0.3 mm 4 m/s 735 mmHg 90%
02:00 +12°C° 0.2 mm 3 m/s 735 mmHg 90%
03:00 +12°C° 0.2 mm 3 m/s 735 mmHg 90%
04:00 +12°C° 0.2 mm 3 m/s 735 mmHg 91%
05:00 +12°C° 0.1 mm 3 m/s 734 mmHg 90%
06:00 +13°C° 0.1 mm 2 m/s 734 mmHg 90%
07:00 +13°C° 0.1 mm 2 m/s 734 mmHg 90%
08:00 +13°C° 0 mm 2 m/s 734 mmHg 88%
09:00 +14°C° 0 mm 2 m/s 734 mmHg 85%
10:00 +14°C° 0 mm 2 m/s 734 mmHg 83%
11:00 +14°C° 0 mm 2 m/s 734 mmHg 79%
12:00 +15°C° 0 mm 2 m/s 733 mmHg 75%
13:00 +15°C° 0 mm 2 m/s 733 mmHg 71%
14:00 +14°C° 0.2 mm 2 m/s 733 mmHg 76%
15:00 +14°C° 0.2 mm 2 m/s 733 mmHg 81%
16:00 +13°C° 0.2 mm 2 m/s 733 mmHg 86%
17:00 +12°C° 0.4 mm 2 m/s 733 mmHg 87%
18:00 +12°C° 0.4 mm 2 m/s 733 mmHg 89%
19:00 +12°C° 0.4 mm 2 m/s 733 mmHg 91%
20:00 +12°C° 0.2 mm 2 m/s 733 mmHg 92%
21:00 +12°C° 0.2 mm 2 m/s 733 mmHg 93%
22:00 +12°C° 0.2 mm 1 m/s 733 mmHg 93%
23:00 +12°C° 0.1 mm 1 m/s 733 mmHg 94%

2 Octombrie, Vineri

Timp Temperatura Precipitaţii Vânt Presiune Umiditate
00:00 +12°C° 0.1 mm 1 m/s 733 mmHg 95%
01:00 +12°C° 0.1 mm 1 m/s 733 mmHg 96%
02:00 +12°C° 0 mm 1 m/s 733 mmHg 96%
03:00 +12°C° 0 mm 1 m/s 733 mmHg 96%
04:00 +11°C° 0 mm 1 m/s 733 mmHg 96%
05:00 +12°C° 0 mm 1 m/s 733 mmHg 96%
06:00 +12°C° 0 mm 1 m/s 733 mmHg 95%
07:00 +12°C° 0 mm 1 m/s 733 mmHg 94%
08:00 +13°C° 0 mm 1 m/s 733 mmHg 90%
09:00 +14°C° 0 mm 1 m/s 733 mmHg 86%
10:00 +14°C° 0 mm 2 m/s 734 mmHg 82%
11:00 +15°C° 0.1 mm 2 m/s 734 mmHg 77%
12:00 +16°C° 0.1 mm 2 m/s 734 mmHg 73%
13:00 +17°C° 0.1 mm 2 m/s 734 mmHg 68%
14:00 +17°C° 0 mm 2 m/s 733 mmHg 68%
15:00 +17°C° 0 mm 2 m/s 733 mmHg 68%
16:00 +17°C° 0 mm 2 m/s 733 mmHg 68%
17:00 +16°C° 0 mm 3 m/s 733 mmHg 72%
18:00 +14°C° 0 mm 3 m/s 733 mmHg 77%
19:00 +13°C° 0 mm 3 m/s 734 mmHg 81%
20:00 +13°C° 0.1 mm 4 m/s 733 mmHg 82%
21:00 +13°C° 0.1 mm 4 m/s 733 mmHg 83%
22:00 +14°C° 0.1 mm 5 m/s 733 mmHg 85%
23:00 +14°C° 0.1 mm 5 m/s 733 mmHg 82%

3 Octombrie, Sâmbătă

Timp Temperatura Precipitaţii Vânt Presiune Umiditate
00:00 +14°C° 0.1 mm 6 m/s 732 mmHg 80%
01:00 +14°C° 0.1 mm 6 m/s 732 mmHg 77%
02:00 +14°C° 0 mm 6 m/s 732 mmHg 80%
03:00 +14°C° 0 mm 6 m/s 732 mmHg 82%
04:00 +14°C° 0 mm 6 m/s 731 mmHg 85%
05:00 +14°C° 0 mm 6 m/s 731 mmHg 83%
06:00 +14°C° 0 mm 6 m/s 731 mmHg 82%
07:00 +14°C° 0 mm 6 m/s 731 mmHg 80%
08:00 +16°C° 0 mm 6 m/s 731 mmHg 72%
09:00 +19°C° 0 mm 6 m/s 731 mmHg 64%
10:00 +21°C° 0 mm 6 m/s 731 mmHg 56%
11:00 +22°C° 0 mm 6 m/s 731 mmHg 52%
12:00 +23°C° 0 mm 6 m/s 731 mmHg 49%
13:00 +26°C° 0 mm 6 m/s 731 mmHg 45%
14:00 +25°C° 0 mm 5 m/s 730 mmHg 50%
15:00 +22°C° 0 mm 4 m/s 730 mmHg 55%
16:00 +21°C° 0 mm 4 m/s 730 mmHg 60%
17:00 +21°C° 0 mm 4 m/s 730 mmHg 61%
18:00 +20°C° 0 mm 5 m/s 730 mmHg 62%
19:00 +20°C° 0 mm 5 m/s 730 mmHg 63%
20:00 +20°C° 0 mm 6 m/s 730 mmHg 63%
21:00 +19°C° 0 mm 6 m/s 730 mmHg 63%
22:00 +18°C° 0 mm 7 m/s 730 mmHg 64%
23:00 +18°C° 0 mm 7 m/s 729 mmHg 63%

4 Octombrie, Duminică

Timp Temperatura Precipitaţii Vânt Presiune Umiditate
00:00 +18°C° 0 mm 7 m/s 729 mmHg 63%
01:00 +18°C° 0 mm 7 m/s 728 mmHg 63%
02:00 +19°C° 0 mm 6 m/s 728 mmHg 63%
03:00 +19°C° 0 mm 6 m/s 728 mmHg 62%
04:00 +20°C° 0 mm 6 m/s 728 mmHg 62%
05:00 +20°C° 0 mm 6 m/s 728 mmHg 63%
06:00 +20°C° 0 mm 5 m/s 729 mmHg 64%
07:00 +20°C° 0 mm 5 m/s 729 mmHg 65%
08:00 +21°C° 0 mm 6 m/s 729 mmHg 61%
09:00 +22°C° 0 mm 7 m/s 730 mmHg 57%
10:00 +23°C° 0 mm 7 m/s 730 mmHg 53%
11:00 +23°C° 0 mm 8 m/s 730 mmHg 51%
12:00 +22°C° 0 mm 8 m/s 731 mmHg 48%
13:00 +22°C° 0 mm 8 m/s 731 mmHg 46%
14:00 +22°C° 0 mm 7 m/s 732 mmHg 49%
15:00 +21°C° 0 mm 6 m/s 732 mmHg 51%
16:00 +20°C° 0 mm 5 m/s 733 mmHg 54%
17:00 +19°C° 0 mm 5 m/s 733 mmHg 58%
18:00 +17°C° 0 mm 5 m/s 733 mmHg 61%
19:00 +17°C° 0 mm 4 m/s 734 mmHg 65%
20:00 +17°C° 0 mm 4 m/s 734 mmHg 66%
21:00 +17°C° 0 mm 4 m/s 734 mmHg 68%
22:00 +16°C° 0 mm 3 m/s 734 mmHg 69%
23:00 +15°C° 0 mm 4 m/s 734 mmHg 69%
Arată mai mult

We Need Your Consent

Meteoprog and our Service Providers may store and access personal data such as cookies, device identifiers or other similar technologies on your device and process such data to personalise content and ads, as well as provide social media features and to analyse the traffic.

  • Store and/or access information on your device

    Cookies, device identifiers or other information can be stored or accessed on your device for the purposes indicated above.

  • Personalised ads and content, ad and content measurement, audience insights, and products development

    Ads and content can be personalised based on a profile. More data can be added to better personalise ads and content. Ad and content performance can be measured. Insights about the audience who saw the ads and content can be derived. Such data can be used to develop or improve user’s experience, systems and software.

By clicking ‘I Agree’ you will allow the use of indicated cookies, device identifiers, web beacons or other similar technologies. Your settings can be changed in the browser on your device.

For certain purposes, legitimate interests may be relied on, rather than consent. You can read more about this in our Privacy and Cookie Policy.